STARLINK-31741 (59550 NORAD) Tracking and Keplerian Element Data

This shows tracking and keplerian element data for the satellite.

Feedback or suggestion? Click here.




ElementValue
Catalog59550
NameSTARLINK-31741
Epoch Orbit886
Epoch Day159.93225424
Epoch Year2024
RAAN28.3931
Inclination43.0032
Eccentricity9.02E-05
Argument of Perigee6.9177
Mean Anonmoly353.1692
Mean Motion15.40723457
Decay Rate7.917E-05
L11 59550U 24074S 24159.93225424 .00007917 00000+0 19643-3 0 9992
L22 59550 43.0032 28.3931 0000902 6.9177 353.1692 15.40723457 8864



Live tracking and technical data element details for STARLINK-31741 (NORAD 59550). STARLINK-31741 can be tracked NOW for your location showing map with azimuth and elevation plus other details from your city location.







IsCatalogInMostPopularTable: catalog: 59550, numindb: 11
Update: records affected: 1



GetName: 59550 STARLINK-31741

Hit Count: updated at: Fri, 14 Jun 2024 18:23:30 GMT